Regional Weather Roundup
Issued by NWS

Home | Current Version | Previous Version | Text Only | Print | Product List | Glossary On
Versions: 1 2 3 4 5 6 7 8 9 10 11 12 13 14 15 16 17 18 19 20 21 22 23 24 25 26 27 28 29 30 31 32 33 34 35 36 37 38 39 40 41 42 43 44 45 46 47 48 49 50
000
ASUS43 KFSD 280302
RWRSD

WEATHER ROUNDUP FOR SOUTH DAKOTA
NATIONAL WEATHER SERVICE SIOUX FALLS SD
1000 PM CDT MON MAR 27 2017

NOTE: "FAIR" INDICATES FEW OR NO CLOUDS BELOW 12,000 FEET WITH NO
SIGNIFICANT WEATHER AND/OR OBSTRUCTIONS TO VISIBILITY.


SDZ001>005-009-010-012>017-280400-
NORTHWEST AND NORTH CENTRAL SOUTH DAKOTA

CITY           SKY/WX    TMP DP  RH WIND       PRES   REMARKS
BUFFALO          N/A     46  35  65 SE13      29.87R
FAITH            N/A     46  34  62 MISG      29.95R
MOBRIDGE       CLEAR     47  35  63 E7        29.95R
$$

SDZ012>016-024>037-041>051-057-063-072>074-280400-
SOUTHWEST AND SOUTH CENTRAL SOUTH DAKOTA

CITY           SKY/WX    TMP DP  RH WIND       PRES   REMARKS
RAPID CTY ARPT PTCLDY    49  35  58 E14       29.90R
PIERRE         CLEAR     43  33  68 NE7       29.94R
CUSTER         CLOUDY    42  31  64 NE8       29.93R
ELLSWORTH AFB  PTCLDY    48  36  64 CALM      29.91R
PHILIP         CLOUDY    51  33  50 E12       29.92R
PINE RIDGE     PTCLDY    48  39  71 E9        29.87R
SPEARFISH      MOCLDY    46  39  76 SE10      29.92R
WINNER         CLOUDY    52  36  54 SE12      29.92R
$$

SDZ004>011-016>023-039-040-280400-
NORTHEAST SOUTH DAKOTA

CITY           SKY/WX    TMP DP  RH WIND       PRES   REMARKS
ABERDEEN       CLOUDY    46 N/A N/A E3        29.99R
WATERTOWN      CLOUDY    47  36  65 E6        29.99R
BROOKINGS      MOCLDY    46  37  71 SE6       29.99R
SISSETON         N/A     42  34  73 CALM      29.99R
$$

SDZ017-020-022-023-036>040-048>070-280400-
SOUTHEAST SOUTH DAKOTA

CITY           SKY/WX    TMP DP  RH WIND       PRES   REMARKS
SIOUX FALLS    PTCLDY    48  39  71 SE8       29.99R
HURON          CLEAR     47  37  68 E5        29.97R
MITCHELL       CLEAR     49  36  61 S8        29.97R
YANKTON        CLEAR     46  39  76 E8        29.99R
$$

ABBREVIATIONS USED IN REMARKS
   TC - TEMPERATURE IN CELSIUS
  WCI - WIND CHILL INDEX
   HX - HEAT INDEX
  VSB - VISIBILITY





USA.gov is the U.S. government's official web portal to all federal, state and local government web resources and services.